This is the latest recevied weather packets stored in our database for station/object F4IVW-13. If no packets are shown the sender has not sent any weather packets the latest 10 day(s).
| Time | Temp. | Humidity | Pressure | Rain* | Wind** | Luminosity | Snow |
|---|---|---|---|---|---|---|---|
| 1777815332 | 22.22° C | 99% | 1012.9 hPa | 0 mm | - | 12 W/m² | - |
| 1777814698 | 21.67° C | 99% | 1012.9 hPa | 0 mm | - | 16 W/m² | - |
| 1777814388 | 21.67° C | 99% | 1013 hPa | 0 mm | - | 21 W/m² | - |
| 1777814062 | 21.11° C | 99% | 1012.9 hPa | 0 mm | - | 21 W/m² | - |
| 1777813745 | 21.11° C | 99% | 1012.9 hPa | 0 mm | - | 19 W/m² | - |
| 1777813427 | 20.56° C | 99% | 1013 hPa | 0 mm | - | 18 W/m² | - |
| 1777813109 | 21.11° C | 99% | 1013.1 hPa | 0 mm | - | 16 W/m² | - |
| 1777812792 | 21.11° C | 99% | 1013.2 hPa | 0 mm | - | 15 W/m² | - |
| 1777812484 | 21.11° C | 99% | 1013.2 hPa | 0 mm | - | 16 W/m² | - |
| 1777812158 | 21.67° C | 99% | 1013.4 hPa | 0 mm | - | 15 W/m² | - |
| 1777811837 | 21.67° C | 99% | 1013.4 hPa | 0 mm | - | 13 W/m² | - |
| 1777811520 | 21.67° C | 99% | 1013.5 hPa | 0 mm | - | 5 W/m² | - |
| 1777811203 | 21.67° C | 99% | 1013.6 hPa | 0 mm | - | 11 W/m² | - |
| 1777810886 | 22.78° C | 99% | 1013.6 hPa | 0 mm | - | 9 W/m² | - |
| 1777810578 | 22.78° C | 99% | 1013.5 hPa | 0 mm | - | 7 W/m² | - |
| 1777810249 | 22.78° C | 99% | 1013.4 hPa | 0 mm | - | 11 W/m² | - |
| 1777809930 | 23.33° C | 99% | 1013.4 hPa | 0 mm | - | 14 W/m² | - |
| 1777809613 | 23.33° C | 99% | 1013.4 hPa | 0 mm | - | 14 W/m² | - |
| 1777809296 | 23.33° C | 99% | 1013.5 hPa | 0 mm | - | 10 W/m² | - |
| 1777808979 | 22.78° C | 99% | 1013.5 hPa | 0 mm | - | 12 W/m² | - |
| 1777808669 | 22.78° C | 99% | 1013.6 hPa | 0 mm | - | 17 W/m² | - |
| 1777808343 | 22.78° C | 99% | 1013.7 hPa | 0 mm | - | 28 W/m² | - |
| 1777808026 | 22.78° C | 99% | 1013.6 hPa | 0 mm | - | 24 W/m² | - |
| 1777807709 | 22.78° C | 99% | 1013.7 hPa | 0 mm | - | 32 W/m² | - |
| 1777807071 | 22.22° C | 99% | 1013.8 hPa | 0 mm | - | 48 W/m² | - |
* Rain latest hour (hover to see other rain measurements)
** Current wind speed in m/s (hover to see current wind gust speed)